START_TIME,STEP,MOV.,M15,t_acc.,M20,t_acc.
1981-08-28 00:00:44.650 ,6,0,0.,24.0,0.,24.0
1981-08-28 00:01:08.650 ,7,1,0.,24.0,0.,24.0
1981-08-28 00:01:32.650 ,7,0,0.,24.0,0.,24.0
1981-08-28 00:01:56.650 ,7,1,0.,24.0,0.,24.0
1981-08-28 00:02:20.650 ,6,1,0.,24.0,0.,24.0
1981-08-28 00:02:44.650 ,5,1,0.,24.0,0.,24.0
1981-08-28 00:03:08.650 ,4,1,0.,24.0,0.,24.0
1981-08-28 00:03:32.650 ,3,1,0.,24.0,0.,24.0
1981-08-28 00:03:56.650 ,2,1,0.,24.0,0.,24.0
1981-08-28 00:04:20.650 ,1,1,0.,24.0,0.,24.0
1981-08-28 00:04:44.650 ,0,1,0.,24.0,0.,24.0
1981-08-28 00:06:44.650 ,0,0,0.,24.0,0.,24.0
1981-08-28 00:07:08.650 ,5,1,0.,24.0,0.,24.0
1981-08-28 00:07:32.650 ,6,1,0.,24.0,0.,24.0
1981-08-28 00:07:56.650 ,7,1,0.,24.0,0.,24.0
1981-08-28 00:08:20.650 ,7,1,0.,24.0,0.,24.0
1981-08-28 00:08:44.650 ,7,0,0.,24.0,0.,24.0
1981-08-28 00:09:08.650 ,6,1,0.,24.0,0.,24.0
1981-08-28 00:09:32.650 ,6,0,0.,24.0,0.,24.0
1981-08-28 00:09:56.650 ,5,1,0.,24.0,0.,24.0
1981-08-28 00:10:20.650 ,5,0,0.,24.0,0.,24.0
1981-08-28 00:10:44.650 ,4,1,0.,24.0,0.,24.0
1981-08-28 00:11:08.650 ,4,0,0.,24.0,0.,24.0
1981-08-28 00:11:32.650 ,3,1,0.,24.0,0.,24.0
1981-08-28 00:11:56.650 ,3,0,0.,24.0,0.,24.0
1981-08-28 00:12:20.650 ,2,1,0.,24.0,0.,24.0
1981-08-28 00:12:44.650 ,2,0,0.,24.0,0.,24.0
1981-08-28 00:13:08.650 ,1,1,0.,24.0,0.,24.0
1981-08-28 00:13:32.650 ,1,0,0.,24.0,0.,24.0
1981-08-28 00:13:56.650 ,0,1,0.,24.0,0.,24.0
1981-08-28 00:14:20.650 ,0,0,0.,24.0,0.,24.0
1981-08-28 00:14:44.650 ,0,1,0.,24.0,0.,24.0
1981-08-28 00:15:08.650 ,0,0,0.,24.0,0.,24.0
1981-08-28 00:15:32.650 ,1,1,0.,24.0,0.,24.0
1981-08-28 00:15:56.650 ,1,0,0.,24.0,0.,24.0
1981-08-28 00:16:20.650 ,2,1,0.,24.0,0.,24.0
1981-08-28 00:16:44.650 ,2,0,0.,24.0,0.,24.0
1981-08-28 00:17:08.650 ,3,1,0.,24.0,0.,24.0
1981-08-28 00:17:32.650 ,3,0,0.,24.0,0.,24.0
1981-08-28 00:17:56.650 ,4,1,0.,24.0,0.,24.0
1981-08-28 00:18:20.650 ,4,0,0.,24.0,0.,24.0
1981-08-28 00:18:44.650 ,5,1,0.,24.0,0.,24.0
1981-08-28 00:19:08.650 ,5,0,0.,24.0,0.,24.0
1981-08-28 00:19:32.650 ,6,1,0.,24.0,0.,24.0
1981-08-28 00:19:56.650 ,6,0,0.,24.0,0.,24.0
1981-08-28 00:20:20.650 ,7,1,0.,24.0,0.,24.0
1981-08-28 00:20:44.650 ,7,0,0.,24.0,0.,24.0
1981-08-28 00:21:08.650 ,7,1,0.,24.0,0.,24.0
1981-08-28 00:21:32.650 ,6,1,0.,24.0,0.,24.0
1981-08-28 00:21:56.650 ,5,1,0.,24.0,0.,24.0
1981-08-28 00:22:20.650 ,4,1,0.,24.0,0.,24.0
1981-08-28 00:22:44.650 ,3,1,0.,24.0,0.,24.0
1981-08-28 00:23:08.650 ,2,1,0.,24.0,0.,24.0
1981-08-28 00:23:32.650 ,1,1,0.,24.0,0.,24.0
1981-08-28 00:23:56.650 ,0,1,0.,24.0,0.,24.0
1981-08-28 00:24:20.650 ,0,1,0.,24.0,0.,24.0
1981-08-28 00:24:44.650 ,1,1,0.,24.0,0.,24.0
1981-08-28 00:25:08.650 ,2,1,0.,24.0,0.,24.0
1981-08-28 00:25:32.650 ,3,1,0.,24.0,0.,24.0
1981-08-28 00:25:56.650 ,4,1,0.,24.0,0.,24.0
1981-08-28 00:26:20.650 ,5,1,0.,24.0,0.,24.0
1981-08-28 00:26:44.650 ,6,1,0.,24.0,0.,24.0
1981-08-28 00:27:08.650 ,7,1,0.,24.0,0.,24.0
1981-08-28 00:27:32.650 ,7,1,0.,24.0,0.,24.0
1981-08-28 00:27:56.650 ,7,0,0.,24.0,0.,24.0
1981-08-28 00:28:20.650 ,6,1,0.,24.0,0.,24.0
1981-08-28 00:28:44.650 ,6,0,0.,24.0,0.,24.0
1981-08-28 00:29:08.650 ,5,1,0.,24.0,0.,24.0
1981-08-28 00:29:32.650 ,5,0,0.,24.0,0.,24.0
1981-08-28 00:29:56.650 ,4,1,0.,24.0,0.,24.0
1981-08-28 00:30:20.650 ,4,0,0.,24.0,0.,24.0
1981-08-28 00:30:44.650 ,3,1,0.,24.0,0.,24.0
1981-08-28 00:31:08.650 ,3,0,0.,24.0,0.,24.0
1981-08-28 00:31:32.650 ,2,1,0.,24.0,0.,24.0
1981-08-28 00:31:56.650 ,2,0,0.,24.0,0.,24.0
1981-08-28 00:32:20.650 ,1,1,0.,24.0,0.,24.0
1981-08-28 00:32:44.650 ,1,0,0.,24.0,0.,24.0
1981-08-28 00:33:08.650 ,0,1,0.,24.0,0.,24.0
1981-08-28 00:33:32.650 ,0,0,0.,24.0,0.,24.0
1981-08-28 00:33:56.650 ,0,1,0.,24.0,0.,24.0
1981-08-28 00:34:20.650 ,0,0,0.,24.0,0.,24.0
1981-08-28 00:34:44.650 ,1,1,0.,24.0,0.,24.0
1981-08-28 00:35:08.650 ,1,0,0.,24.0,0.,24.0
1981-08-28 00:35:32.650 ,2,1,0.,24.0,0.,24.0
1981-08-28 00:35:56.650 ,2,0,0.,24.0,0.,24.0
1981-08-28 00:36:20.650 ,3,1,0.,24.0,0.,24.0
1981-08-28 00:36:44.650 ,3,0,0.,24.0,0.,24.0
1981-08-28 00:37:08.650 ,4,1,0.,24.0,0.,24.0
1981-08-28 00:37:32.650 ,4,0,0.,24.0,0.,24.0
1981-08-28 00:37:56.650 ,5,1,0.,24.0,0.,24.0
1981-08-28 00:38:20.650 ,0,0,,0,,0
1981-08-28 00:38:36.250 ,0,0,,0,,0
1981-08-28 00:38:36.850 ,0,0,0.,24.0,0.,24.0
1981-08-28 00:38:44.650 ,6,1,0.,24.0,0.,24.0
1981-08-28 00:39:08.650 ,6,0,0.,24.0,0.,24.0
1981-08-28 00:39:32.650 ,7,1,0.,24.0,0.,24.0
1981-08-28 00:39:56.650 ,7,0,0.,24.0,0.,24.0
1981-08-28 00:40:20.650 ,7,1,0.,24.0,0.,24.0
1981-08-28 00:40:44.650 ,6,1,0.,24.0,0.,24.0
1981-08-28 00:41:08.650 ,5,1,0.,24.0,0.,24.0
1981-08-28 00:41:32.650 ,4,1,0.,24.0,0.,24.0
1981-08-28 00:41:56.650 ,3,1,0.,24.0,0.,24.0
1981-08-28 00:42:20.650 ,2,1,0.,24.0,0.,24.0
1981-08-28 00:42:44.650 ,1,1,0.,24.0,0.,24.0
1981-08-28 00:43:08.650 ,0,1,0.,24.0,0.,24.0
1981-08-28 00:43:32.650 ,0,1,0.,24.0,0.,24.0
1981-08-28 00:43:56.650 ,1,1,0.,24.0,0.,24.0
1981-08-28 00:44:20.650 ,2,1,0.,24.0,0.,24.0
1981-08-28 00:44:44.650 ,3,1,0.,24.0,0.,24.0
1981-08-28 00:45:56.650 ,0,0,0.,24.0,0.,24.0
1981-08-28 00:46:20.650 ,7,1,0.,24.0,0.,24.0
1981-08-28 00:46:44.650 ,7,1,0.,24.0,0.,24.0
1981-08-28 00:47:08.650 ,7,0,0.,24.0,0.,24.0
1981-08-28 00:47:32.650 ,6,1,0.,24.0,0.,24.0
1981-08-28 00:47:56.650 ,6,0,0.,24.0,0.,24.0
1981-08-28 00:48:20.650 ,5,1,0.,24.0,0.,24.0
1981-08-28 00:48:44.650 ,5,0,0.,24.0,0.,24.0
1981-08-28 00:49:08.650 ,4,1,0.,24.0,0.,24.0
1981-08-28 00:49:32.650 ,4,0,0.,24.0,0.,24.0
1981-08-28 00:49:56.650 ,3,1,0.,24.0,0.,24.0
1981-08-28 00:50:20.650 ,3,0,0.,24.0,0.,24.0
1981-08-28 00:50:44.650 ,2,1,0.,24.0,0.,24.0
1981-08-28 00:51:08.650 ,2,0,0.,24.0,0.,24.0
1981-08-28 00:51:32.650 ,1,1,0.,24.0,0.,24.0
1981-08-28 00:51:56.650 ,1,0,0.,24.0,0.,24.0
1981-08-28 00:52:20.650 ,0,1,0.,24.0,0.,24.0
1981-08-28 00:52:44.650 ,0,0,0.,24.0,0.,24.0
1981-08-28 00:53:08.650 ,0,1,0.,24.0,0.,24.0
1981-08-28 00:53:32.650 ,0,0,0.,24.0,0.,24.0
1981-08-28 00:53:56.650 ,1,1,0.,24.0,0.,24.0
1981-08-28 00:54:20.650 ,1,0,0.,24.0,0.,24.0
1981-08-28 00:54:44.650 ,2,1,0.,24.0,0.,24.0
1981-08-28 00:55:08.650 ,2,0,0.,24.0,0.,24.0
1981-08-28 00:55:32.650 ,3,1,0.,24.0,0.,24.0
1981-08-28 00:55:56.650 ,3,0,0.,24.0,0.,24.0
1981-08-28 00:56:20.650 ,4,1,0.,24.0,0.,24.0
1981-08-28 00:56:44.650 ,4,0,0.,24.0,0.,24.0
1981-08-28 00:57:08.650 ,5,1,0.,24.0,0.,24.0
1981-08-28 00:57:32.650 ,5,0,0.,24.0,0.,24.0
1981-08-28 00:57:56.650 ,6,1,0.,24.0,0.,24.0
1981-08-28 00:58:20.650 ,6,0,0.,24.0,0.,24.0
1981-08-28 00:58:44.650 ,7,1,0.,24.0,0.,24.0
1981-08-28 00:59:08.650 ,7,0,0.,24.0,0.,24.0
1981-08-28 00:59:32.650 ,7,1,0.,24.0,0.,24.0
1981-08-28 00:59:56.650 ,6,1,0.,24.0,0.,24.0
1981-08-28 01:00:20.650 ,5,1,0.,24.0,0.,24.0
1981-08-28 01:00:44.650 ,4,1,0.,24.0,0.,24.0
1981-08-28 01:01:08.650 ,3,1,0.,24.0,0.,24.0
1981-08-28 01:01:32.650 ,2,1,0.,24.0,0.,24.0
1981-08-28 01:01:56.650 ,1,1,0.,24.0,0.,24.0
1981-08-28 01:02:20.650 ,0,1,0.,24.0,0.,24.0
1981-08-28 01:02:44.650 ,0,1,0.,24.0,1.,24.0
1981-08-28 01:03:08.650 ,1,1,0.,24.0,0.,24.0
1981-08-28 01:03:32.650 ,2,1,0.,24.0,0.,24.0
1981-08-28 01:03:56.650 ,3,1,0.,24.0,0.,24.0
1981-08-28 01:04:20.650 ,4,1,0.,24.0,0.,24.0
1981-08-28 01:04:44.650 ,5,1,0.,24.0,0.,24.0
1981-08-28 01:05:08.650 ,6,1,0.,24.0,0.,24.0
1981-08-28 01:05:32.650 ,7,1,0.,24.0,0.,24.0
1981-08-28 01:05:56.650 ,7,1,0.,24.0,0.,24.0
1981-08-28 01:06:20.650 ,7,0,0.,24.0,0.,24.0
1981-08-28 01:06:44.650 ,6,1,0.,24.0,0.,24.0
1981-08-28 01:07:08.650 ,6,0,0.,24.0,0.,24.0
1981-08-28 01:07:32.650 ,5,1,0.,24.0,0.,24.0
1981-08-28 01:07:56.650 ,5,0,0.,24.0,0.,24.0
1981-08-28 01:08:20.650 ,4,1,0.,24.0,0.,24.0
1981-08-28 01:08:44.650 ,4,0,0.,24.0,0.,24.0
1981-08-28 01:09:08.650 ,3,1,0.,24.0,0.,24.0
1981-08-28 01:09:32.650 ,3,0,0.,24.0,0.,24.0
1981-08-28 01:09:56.650 ,2,1,0.,24.0,0.,24.0
1981-08-28 01:10:20.650 ,2,0,0.,24.0,0.,24.0
1981-08-28 01:10:44.650 ,1,1,0.,24.0,0.,24.0
1981-08-28 01:11:08.650 ,1,0,0.,24.0,0.,24.0
1981-08-28 01:11:32.650 ,0,1,0.,24.0,0.,24.0
1981-08-28 01:11:56.650 ,0,0,0.,24.0,0.,24.0
1981-08-28 01:12:20.650 ,0,1,0.,24.0,0.,24.0
1981-08-28 01:12:44.650 ,0,0,0.,24.0,0.,24.0
1981-08-28 01:13:08.650 ,1,1,0.,24.0,0.,24.0
1981-08-28 01:13:32.650 ,1,0,0.,24.0,0.,24.0
1981-08-28 01:13:56.650 ,2,1,0.,24.0,0.,24.0
1981-08-28 01:14:20.650 ,2,0,0.,24.0,0.,24.0
1981-08-28 01:14:44.650 ,3,1,0.,24.0,0.,24.0
1981-08-28 01:15:08.650 ,3,0,0.,24.0,0.,24.0
1981-08-28 01:15:32.650 ,4,1,0.,24.0,0.,24.0
1981-08-28 01:15:56.650 ,4,0,0.,24.0,0.,24.0
1981-08-28 01:16:20.650 ,5,1,0.,24.0,0.,24.0
1981-08-28 01:16:44.650 ,0,0,,0,,0
1981-08-28 01:17:08.650 ,6,1,0.,24.0,0.,24.0
1981-08-28 01:17:32.650 ,6,0,0.,24.0,0.,24.0
1981-08-28 01:17:56.650 ,7,1,0.,24.0,0.,24.0
1981-08-28 01:18:20.650 ,7,0,0.,24.0,0.,24.0
1981-08-28 01:18:44.650 ,7,1,0.,24.0,0.,24.0
1981-08-28 01:19:08.650 ,6,1,0.,24.0,0.,24.0
1981-08-28 01:19:32.650 ,5,1,0.,24.0,0.,24.0
1981-08-28 01:19:56.650 ,4,1,0.,24.0,0.,24.0
1981-08-28 01:20:20.650 ,3,1,0.,24.0,0.,24.0
1981-08-28 01:20:44.650 ,2,1,0.,24.0,0.,24.0
1981-08-28 01:21:08.650 ,1,1,0.,24.0,0.,24.0
1981-08-28 01:21:32.650 ,0,1,0.,24.0,0.,24.0
1981-08-28 01:21:56.650 ,0,1,0.,24.0,0.,24.0
1981-08-28 01:22:20.650 ,1,1,0.,24.0,0.,24.0
1981-08-28 01:22:44.650 ,2,1,0.,24.0,0.,24.0
1981-08-28 01:23:08.650 ,3,1,0.,24.0,0.,24.0
1981-08-28 01:23:32.650 ,4,1,0.,24.0,0.,24.0
1981-08-28 01:23:56.650 ,5,1,0.,24.0,0.,24.0
1981-08-28 01:24:20.650 ,6,1,0.,24.0,0.,24.0
1981-08-28 01:24:44.650 ,7,1,0.,24.0,0.,24.0
1981-08-28 01:25:08.650 ,7,1,0.,24.0,0.,24.0
1981-08-28 01:25:32.650 ,7,0,0.,24.0,0.,24.0
1981-08-28 01:25:56.650 ,6,1,0.,24.0,0.,24.0
1981-08-28 01:26:20.650 ,6,0,0.,24.0,0.,24.0
1981-08-28 01:26:44.650 ,5,1,0.,24.0,0.,24.0
1981-08-28 01:27:08.650 ,5,0,0.,24.0,0.,24.0
1981-08-28 01:27:32.650 ,4,1,0.,24.0,0.,24.0
1981-08-28 01:27:56.650 ,4,0,0.,24.0,0.,24.0
1981-08-28 01:28:20.650 ,3,1,0.,24.0,0.,24.0
1981-08-28 01:28:44.650 ,3,0,0.,24.0,0.,24.0
1981-08-28 01:29:08.650 ,2,1,0.,24.0,0.,24.0
1981-08-28 01:29:32.650 ,2,0,0.,24.0,0.,24.0
1981-08-28 01:29:56.650 ,1,1,0.,24.0,0.,24.0
1981-08-28 01:30:20.650 ,1,0,0.,24.0,0.,24.0
1981-08-28 01:30:44.650 ,0,1,0.,24.0,0.,24.0
1981-08-28 01:31:08.650 ,0,0,0.,24.0,0.,24.0
1981-08-28 01:31:32.650 ,0,1,0.,24.0,0.,24.0
1981-08-28 01:31:56.650 ,0,0,0.,24.0,0.,24.0
1981-08-28 01:32:20.650 ,1,1,0.,24.0,0.,24.0
1981-08-28 01:32:44.650 ,1,0,0.,24.0,0.,24.0
1981-08-28 01:33:08.650 ,2,1,0.,24.0,0.,24.0
1981-08-28 01:33:32.650 ,2,0,0.,24.0,0.,24.0
1981-08-28 01:33:56.650 ,3,1,0.,24.0,0.,24.0
1981-08-28 01:34:20.650 ,3,0,0.,24.0,0.,24.0
1981-08-28 01:34:44.650 ,4,1,0.,24.0,0.,24.0
1981-08-28 01:35:08.650 ,4,0,0.,24.0,0.,24.0
1981-08-28 01:35:32.650 ,5,1,0.,24.0,0.,24.0
1981-08-28 01:35:56.650 ,5,0,0.,24.0,0.,24.0
1981-08-28 01:36:20.650 ,6,1,0.,24.0,0.,24.0
1981-08-28 01:36:44.650 ,6,0,0.,24.0,0.,24.0
1981-08-28 01:37:08.650 ,7,1,0.,24.0,0.,24.0
1981-08-28 01:37:32.650 ,7,0,0.,24.0,0.,24.0
1981-08-28 01:37:56.650 ,7,1,0.,24.0,0.,24.0
1981-08-28 01:38:20.650 ,6,1,0.,24.0,0.,24.0
1981-08-28 01:38:44.650 ,5,1,0.,24.0,0.,24.0
1981-08-28 01:39:08.650 ,4,1,0.,24.0,0.,24.0
1981-08-28 01:39:32.650 ,3,1,0.,24.0,0.,24.0
1981-08-28 01:39:56.650 ,2,1,0.,24.0,0.,24.0
1981-08-28 01:40:20.650 ,1,1,0.,24.0,0.,24.0
1981-08-28 01:40:44.650 ,0,1,0.,24.0,0.,24.0
1981-08-28 01:41:08.650 ,0,1,0.,24.0,0.,24.0
1981-08-28 01:41:32.650 ,1,1,0.,24.0,0.,24.0
1981-08-28 01:41:56.650 ,2,1,0.,24.0,0.,24.0
1981-08-28 01:42:20.650 ,3,1,0.,24.0,0.,24.0
1981-08-28 01:42:44.650 ,4,1,0.,24.0,0.,24.0
1981-08-28 01:43:08.650 ,5,1,0.,24.0,0.,24.0
1981-08-28 01:43:32.650 ,6,1,0.,24.0,0.,24.0
1981-08-28 01:43:56.650 ,7,1,0.,24.0,0.,24.0
1981-08-28 01:44:20.650 ,7,1,0.,24.0,0.,24.0
1981-08-28 01:44:44.650 ,7,0,0.,24.0,0.,24.0
1981-08-28 01:45:08.650 ,6,1,0.,24.0,0.,24.0
1981-08-28 01:45:32.650 ,6,0,0.,24.0,0.,24.0
1981-08-28 01:45:56.650 ,5,1,0.,24.0,0.,24.0
1981-08-28 01:46:20.650 ,5,0,0.,24.0,0.,24.0
1981-08-28 01:46:44.650 ,4,1,0.,24.0,0.,24.0
1981-08-28 01:47:08.650 ,4,0,0.,24.0,0.,24.0
1981-08-28 01:47:32.650 ,3,1,0.,24.0,0.,24.0
1981-08-28 01:47:56.650 ,3,0,0.,24.0,0.,24.0
1981-08-28 01:48:20.650 ,2,1,0.,24.0,0.,24.0
1981-08-28 01:48:44.650 ,2,0,0.,24.0,0.,24.0
1981-08-28 01:49:08.650 ,1,1,0.,24.0,0.,24.0
1981-08-28 01:49:32.650 ,1,0,0.,24.0,0.,24.0
1981-08-28 01:49:56.650 ,0,1,0.,24.0,0.,24.0
1981-08-28 01:50:20.650 ,0,0,0.,24.0,0.,24.0
1981-08-28 01:50:44.650 ,0,1,0.,24.0,0.,24.0
1981-08-28 01:51:08.650 ,0,0,0.,24.0,0.,24.0
1981-08-28 01:51:32.650 ,1,1,0.,24.0,0.,24.0
1981-08-28 01:51:56.650 ,1,0,0.,24.0,0.,24.0
1981-08-28 01:52:20.650 ,2,1,0.,24.0,0.,24.0
1981-08-28 01:52:44.650 ,2,0,0.,24.0,0.,24.0
1981-08-28 01:53:08.650 ,3,1,0.,24.0,0.,24.0
1981-08-28 01:53:32.650 ,3,0,0.,24.0,0.,24.0
1981-08-28 01:53:56.650 ,4,1,0.,24.0,0.,24.0
1981-08-28 01:54:20.650 ,4,0,0.,24.0,0.,24.0
1981-08-28 01:54:44.650 ,5,1,0.,24.0,0.,24.0
1981-08-28 01:55:08.650 ,5,0,0.,24.0,0.,24.0
1981-08-28 01:55:32.650 ,6,1,0.,24.0,0.,24.0
1981-08-28 01:55:56.650 ,6,0,0.,24.0,0.,24.0
1981-08-28 01:56:20.650 ,7,1,0.,24.0,0.,24.0
1981-08-28 01:56:44.650 ,7,0,0.,24.0,0.,24.0
1981-08-28 01:57:08.650 ,7,1,0.,24.0,0.,24.0
1981-08-28 01:57:32.650 ,6,1,0.,24.0,0.,24.0
1981-08-28 01:57:56.650 ,5,1,0.,24.0,0.,24.0
1981-08-28 01:58:20.650 ,4,1,0.,24.0,0.,24.0
1981-08-28 01:58:44.650 ,3,1,0.,24.0,0.,24.0
1981-08-28 01:59:08.650 ,2,1,0.,24.0,0.,24.0
1981-08-28 01:59:32.650 ,1,1,0.,24.0,0.,24.0
1981-08-28 01:59:56.650 ,0,1,0.,24.0,0.,24.0
1981-08-28 02:00:20.640 ,0,1,0.,24.0,0.,24.0
1981-08-28 02:00:44.640 ,1,1,0.,24.0,0.,24.0
1981-08-28 02:01:08.640 ,2,1,0.,24.0,0.,24.0
1981-08-28 02:01:32.640 ,3,1,0.,24.0,0.,24.0
1981-08-28 02:01:56.640 ,4,1,0.,24.0,0.,24.0
1981-08-28 02:02:20.640 ,0,0,0.,24.0,0.,24.0
1981-08-28 02:06:09.240 ,0,0,0.,24.0,0.,24.0
1981-08-28 02:06:20.640 ,0,0,0.,24.0,0.,24.0
1981-08-28 02:06:44.640 ,3,1,0.,24.0,0.,24.0
1981-08-28 02:07:08.640 ,3,0,0.,24.0,0.,24.0
1981-08-28 02:07:32.640 ,2,1,0.,24.0,0.,24.0
1981-08-28 02:07:56.640 ,2,0,0.,24.0,0.,24.0
1981-08-28 02:08:20.640 ,1,1,0.,24.0,0.,24.0
1981-08-28 02:08:44.640 ,1,0,0.,24.0,0.,24.0
1981-08-28 02:09:08.640 ,0,1,0.,24.0,0.,24.0
1981-08-28 02:09:32.640 ,0,0,0.,24.0,0.,24.0
1981-08-28 02:09:56.640 ,0,1,0.,24.0,0.,24.0
1981-08-28 02:10:20.640 ,0,0,0.,24.0,0.,24.0
1981-08-28 02:10:44.640 ,1,1,0.,24.0,0.,24.0
1981-08-28 02:11:08.640 ,1,0,0.,24.0,0.,24.0
1981-08-28 02:11:32.640 ,2,1,0.,24.0,0.,24.0
1981-08-28 02:11:56.640 ,2,0,0.,24.0,0.,24.0
1981-08-28 02:12:20.640 ,3,1,0.,24.0,0.,24.0
1981-08-28 02:12:44.640 ,3,0,0.,24.0,0.,24.0
1981-08-28 02:13:08.640 ,4,1,0.,24.0,0.,24.0
1981-08-28 02:13:32.640 ,4,0,0.,24.0,0.,24.0
1981-08-28 02:13:56.640 ,5,1,0.,24.0,0.,24.0
1981-08-28 02:14:20.640 ,5,0,0.,24.0,0.,24.0
1981-08-28 02:14:44.640 ,6,1,0.,24.0,0.,24.0
1981-08-28 02:15:08.640 ,6,0,0.,24.0,0.,24.0
1981-08-28 02:15:32.640 ,7,1,0.,24.0,0.,24.0
1981-08-28 02:15:56.640 ,7,0,0.,24.0,0.,24.0
1981-08-28 02:16:20.640 ,7,1,0.,24.0,0.,24.0
1981-08-28 02:16:44.640 ,6,1,0.,24.0,0.,24.0
1981-08-28 02:17:08.640 ,5,1,0.,24.0,0.,24.0
1981-08-28 02:17:32.640 ,0,0,0.,24.0,0.,24.0
1981-08-28 02:17:56.640 ,3,1,0.,24.0,0.,24.0
1981-08-28 02:18:20.640 ,2,1,0.,24.0,0.,24.0
1981-08-28 02:18:44.640 ,1,1,0.,24.0,0.,24.0
1981-08-28 02:19:08.640 ,0,1,0.,24.0,0.,24.0
1981-08-28 02:19:32.640 ,0,1,0.,24.0,0.,24.0
1981-08-28 02:19:56.640 ,1,1,0.,24.0,0.,24.0
1981-08-28 02:20:20.640 ,2,1,0.,24.0,0.,24.0
1981-08-28 02:20:44.640 ,3,1,0.,24.0,0.,24.0
1981-08-28 02:21:08.640 ,4,1,0.,24.0,0.,24.0
1981-08-28 02:21:32.640 ,5,1,0.,24.0,0.,24.0
1981-08-28 02:21:56.640 ,6,1,0.,24.0,0.,24.0
1981-08-28 02:22:20.640 ,7,1,0.,24.0,0.,24.0
1981-08-28 02:22:44.640 ,7,1,0.,24.0,0.,24.0
1981-08-28 02:23:08.640 ,7,0,0.,24.0,0.,24.0
1981-08-28 02:23:32.640 ,6,1,0.,24.0,0.,24.0
1981-08-28 02:23:56.640 ,6,0,0.,24.0,0.,24.0
1981-08-28 02:24:20.640 ,5,1,0.,24.0,0.,24.0
1981-08-28 02:24:44.640 ,5,0,0.,24.0,0.,24.0
1981-08-28 02:25:08.640 ,4,1,0.,24.0,0.,24.0
1981-08-28 02:25:32.640 ,4,0,0.,24.0,0.,24.0
1981-08-28 02:25:56.640 ,3,1,0.,24.0,0.,24.0
1981-08-28 02:26:20.640 ,3,0,0.,24.0,0.,24.0
1981-08-28 02:26:44.640 ,2,1,0.,24.0,0.,24.0
1981-08-28 02:27:08.640 ,2,0,0.,24.0,0.,24.0
1981-08-28 02:27:32.640 ,1,1,0.,24.0,0.,24.0
1981-08-28 02:27:56.640 ,1,0,0.,24.0,0.,24.0
1981-08-28 02:28:20.640 ,0,1,0.,24.0,0.,24.0
1981-08-28 02:28:44.640 ,0,0,0.,24.0,0.,24.0
1981-08-28 02:29:08.640 ,0,1,0.,24.0,0.,24.0
1981-08-28 02:29:32.640 ,0,0,0.,24.0,0.,24.0
1981-08-28 02:30:44.640 ,0,0,1.,24.0,0.,24.0
1981-08-28 02:31:08.640 ,0,0,0.,24.0,0.,24.0
1981-08-28 02:31:32.640 ,3,1,0.,24.0,0.,24.0
1981-08-28 02:31:56.640 ,3,0,0.,24.0,0.,24.0
1981-08-28 02:32:20.640 ,4,1,0.,24.0,0.,24.0
1981-08-28 02:32:44.640 ,4,0,0.,24.0,0.,24.0
1981-08-28 02:33:08.640 ,5,1,0.,24.0,0.,24.0
1981-08-28 02:33:32.640 ,5,0,0.,24.0,0.,24.0
1981-08-28 02:33:56.640 ,6,1,0.,24.0,0.,24.0
1981-08-28 02:34:20.640 ,6,0,0.,24.0,0.,24.0
1981-08-28 02:34:44.640 ,7,1,0.,24.0,0.,24.0
1981-08-28 02:35:08.640 ,7,0,0.,24.0,0.,24.0
1981-08-28 02:35:32.640 ,7,1,0.,24.0,0.,24.0
1981-08-28 02:35:56.640 ,6,1,0.,24.0,0.,24.0
1981-08-28 02:37:08.640 ,0,0,0.,24.0,0.,24.0
1981-08-28 02:37:32.640 ,2,1,0.,24.0,0.,24.0
1981-08-28 02:37:56.640 ,1,1,0.,24.0,0.,24.0
1981-08-28 02:38:20.640 ,0,1,0.,24.0,0.,24.0
1981-08-28 02:38:44.640 ,0,1,0.,24.0,0.,24.0
1981-08-28 02:39:08.640 ,1,1,0.,24.0,0.,24.0
1981-08-28 02:39:32.640 ,2,1,0.,24.0,0.,24.0
1981-08-28 02:39:56.640 ,3,1,0.,24.0,0.,24.0
1981-08-28 02:40:20.640 ,4,1,0.,24.0,0.,24.0
1981-08-28 02:40:44.640 ,5,1,0.,24.0,0.,24.0
1981-08-28 02:41:08.640 ,6,1,0.,24.0,0.,24.0
1981-08-28 02:41:32.640 ,7,1,0.,24.0,0.,24.0
1981-08-28 02:41:56.640 ,7,1,0.,24.0,0.,24.0
1981-08-28 02:42:20.640 ,7,0,0.,24.0,0.,24.0
1981-08-28 02:42:44.640 ,6,1,0.,24.0,0.,24.0
1981-08-28 02:43:08.640 ,6,0,0.,24.0,0.,24.0
1981-08-28 02:43:32.640 ,5,1,0.,24.0,0.,24.0
1981-08-28 02:43:56.640 ,5,0,0.,24.0,0.,24.0
1981-08-28 02:44:20.640 ,4,1,0.,24.0,0.,24.0
1981-08-28 02:44:44.640 ,4,0,0.,24.0,0.,24.0
1981-08-28 02:45:08.640 ,3,1,0.,24.0,0.,24.0
1981-08-28 02:45:32.640 ,3,0,0.,24.0,0.,24.0
1981-08-28 02:46:44.640 ,0,0,0.,24.0,0.,24.0
1981-08-28 02:47:08.640 ,0,0,0.,24.0,0.,24.0
1981-08-28 02:49:08.640 ,0,0,0.,24.0,0.,24.0
1981-08-28 02:49:32.640 ,0,0,0.,24.0,0.,24.0
1981-08-28 02:49:56.640 ,2,1,0.,24.0,0.,24.0
1981-08-28 02:50:20.640 ,2,0,0.,24.0,0.,24.0
1981-08-28 02:50:44.640 ,3,1,0.,24.0,0.,24.0
1981-08-28 02:51:08.640 ,3,0,0.,24.0,0.,24.0
1981-08-28 02:51:32.640 ,4,1,0.,24.0,0.,24.0
1981-08-28 02:51:56.640 ,4,0,0.,24.0,0.,24.0
1981-08-28 02:52:20.640 ,5,1,0.,24.0,0.,24.0
1981-08-28 02:52:44.640 ,5,0,0.,24.0,0.,24.0
1981-08-28 02:53:08.640 ,6,1,0.,24.0,0.,24.0
1981-08-28 02:53:32.640 ,6,0,0.,24.0,0.,24.0
1981-08-28 02:53:56.640 ,7,1,0.,24.0,0.,24.0
1981-08-28 02:54:20.640 ,7,0,0.,24.0,0.,24.0
1981-08-28 02:54:44.640 ,7,1,0.,24.0,0.,24.0
1981-08-28 02:55:08.640 ,6,1,0.,24.0,0.,24.0
1981-08-28 02:55:32.640 ,5,1,0.,24.0,0.,24.0
1981-08-28 02:55:56.640 ,4,1,0.,24.0,0.,24.0
1981-08-28 02:56:20.640 ,3,1,0.,24.0,0.,24.0
1981-08-28 02:56:44.640 ,2,1,0.,24.0,0.,24.0
1981-08-28 02:57:08.640 ,1,1,0.,24.0,0.,24.0
1981-08-28 02:57:32.640 ,0,1,0.,24.0,0.,24.0
1981-08-28 02:57:56.640 ,0,1,0.,24.0,0.,24.0
1981-08-28 02:58:20.640 ,1,1,0.,24.0,0.,24.0
1981-08-28 02:58:44.640 ,2,1,0.,24.0,0.,24.0
1981-08-28 02:59:08.640 ,3,1,0.,24.0,0.,24.0
1981-08-28 02:59:32.640 ,4,1,0.,24.0,0.,24.0
1981-08-28 02:59:56.640 ,5,1,0.,24.0,0.,24.0
1981-08-28 03:00:20.640 ,6,1,0.,24.0,0.,24.0
